Regional Weather Roundup
Issued by NWS Nashville, TN

Home | Current Version | Previous Version | Text Only | Print | Product List | Glossary On
Versions: 1 2 3 4 5 6 7 8 9 10 11 12 13 14 15 16 17 18 19 20 21 22 23 24 25 26 27 28 29 30 31 32 33 34 35 36 37 38 39 40 41 42 43 44 45 46 47 48 49 50
000
ASUS44 KOHX 242110
RWROHX
MIDDLE TENNESSEE HOURLY WEATHER ROUNDUP
NATIONAL WEATHER SERVICE NASHVILLE TN
400 PM CDT FRI MAR 24 2017

NOTE: "FAIR" INDICATES FEW OR NO CLOUDS BELOW 12,000 FEET WITH
NO SIGNIFICANT WEATHER AND/OR OBSTRUCTIONS TO VISIBILITY.

* THESE REPORTS ARE NOT UNDER NWS QUALITY CONTROL AND MAY NOT
  REPORT WEATHER SUCH AS PRECIPITATION AND FOG.


TNZ005>011-023>034-057-059-062>066-078-080-242200
...NORTHERN MIDDLE TENNESSEE...

CITY           SKY/WX    TMP DP  RH WIND       PRES   REMARKS
CLARKSVILLE    CLOUDY    74  52  46 SW17G26   30.15F
CROSSVILLE     CLOUDY    66  48  52 S13G18    30.29F
GALLATIN       CLOUDY    73  54  49 S10G16    30.22F
LIVINGSTON     CLOUDY    73  50  44 SW14      30.23
NASHVILLE      CLOUDY    75  53  46 S16       30.19F
PORTLAND       CLOUDY    73  54  49 S16       30.18F
SMYRNA         CLOUDY    73  55  53 S9G18     30.21F
SPARTA         SUNNY     73  52  46 SW15      30.22F
SPRINGFIELD    PTSUNNY   73  54  49 S13G22    30.16F
WEST NASHVILLE CLOUDY    72  52  49 S15       30.18F
$$
TNZ056-058-060-061-075>077-079-093>097-242200
...SOUTHERN MIDDLE TENNESSEE...

CITY           SKY/WX    TMP DP  RH WIND       PRES   REMARKS
COLUMBIA       CLOUDY    73  55  53 S10       30.18F
FAYETTEVILLE   CLOUDY    72  54  53 SE13G20   30.24S
MCMINNVILLE    SUNNY     73  54  49 S9        30.24F
SHELBYVILLE    MOSUNNY   75  55  50 S17       30.23F
TULLAHOMA      MOSUNNY   72  48  43 S13       30.25F
WINCHESTER     PTSUNNY   72  54  53 S12       30.25F
$$


...KEY TO REMARKS...
VSB - VISIBILITY IN MILES
WCI - WIND CHILL INDEX
HX  - HEAT INDEX




USA.gov is the U.S. government's official web portal to all federal, state and local government web resources and services.